Terminal Aerodrome Forecast
Issued by NWS Cheyenne, WY

Home | Current Version | Previous Version | Text Only | Print | Product List | Glossary On
Versions: 1 2 3 4 5 6 7 8 9 10 11 12 13 14 15 16 17 18 19 20 21 22 23 24 25 26 27 28 29 30 31 32 33 34 35 36 37 38 39 40 41 42 43 44 45 46 47 48 49 50
000
FTUS45 KCYS 262325
TAFCYS
TAF
KCYS 262325Z 2700/2724 01006KT 2SM -SN BR OVC030
      TEMPO 2700/2702 3/4SM -SN BR OVC025
     FM270200 01005KT 3/4SM -SN BR OVC015
     FM270800 29007KT P6SM OVC025
     FM271500 27014G25KT P6SM SCT050=

USA.gov is the U.S. government's official web portal to all federal, state and local government web resources and services.